Location: Camerons Lookout
(40.9833°S, 175.9333°E)
Time: 18:22:30
(UTC+00:00)

Cosmos 1782 Rocket - Pass Details

Date: 14 January 2026
Orbit: 601 x 624 km, 82.5° (Epoch: 16 February)

Event Time Altitude Azimuth Distance (km) Brightness Sun altitude
Exits shadow 10:02:13 33° 348° (NNW) 1,073 4.4 -19.4°
Maximum altitude 10:04:13 83° 263° (W) 643 3.6 -19.7°
Drops below altitude 10° 10:08:44 10° 174° (S) 2,024 6.9 -20.1°
Sets 10:10:59 0° 173° (S) 2,936 7.8 -20.4°
